Wray Municipal Airport, CO

11:57 AM MDT on July 28, 2017 (GMT -0600)
Wray Municipal Airport

Weather History for K2V5 - August, 2014

Change the Weather History Date:

Monday, August 11, 2014

  Actual Average (KSYF) Record (KSYF)
Temperature  
Mean Temperature 72 °F -  
Max Temperature 86 °F 87 °F 95 °F (2016)
Min Temperature 58 °F 57 °F 56 °F (2014)
Cooling Degree Days 7    
Growing Degree Days 22 (Base 50)    
Moisture  
Dew Point 58 °F    
Average Humidity 63    
Maximum Humidity 100    
Minimum Humidity 28    
Precipitation  
Precipitation 0.01 in - - ()
Sea Level Pressure  
Sea Level Pressure 30.28 in    
Wind  
Wind Speed 3 mph (ESE)    
Max Wind Speed 18 mph    
Max Gust Speed 23 mph    
Visibility 9 miles    
Events Rain    
Averages and records for this station are not official NWS values.
T = Trace of Precipitation, MM = Missing Value Source: NWS Daily Summary

Daily Weather History Graph

Daily Weather History Graph

Search for Another Location

Airport or City:

Trip Planner

Search our weather history database for the weather conditions in past years. The results will help you decide how hot, cold, wet, or windy it might be!

Date:

Astronomy

Aug. 11, 2014 Rise Set
Actual Time 5:56 AM MDT 7:50 PM MDT
Civil Twilight 5:27 AM MDT 8:20 PM MDT
Nautical Twilight 4:51 AM MDT 8:56 PM MDT
Astronomical Twilight 4:12 AM MDT 9:34 PM MDT
Moon 8:20 PM MDT (8/11) 7:04 AM MDT (8/11)
Length of Visible Light 14h 53m
Length of Day
13h 54m
Full, 98% of the Moon is Illuminated
Aug 11
Full
Aug 17
Last Quarter
Aug 25
New
Sep 2
First Quarter
Sep 8
Full

Hourly Weather History & Observations

Time (MDT) Temp. Heat Index Dew Point Humidity Pressure Visibility Wind Dir Wind Speed Gust Speed Precip Events Conditions
12:15 AM 62.4 °F - 58.6 °F 87% 30.30 in 10.0 mi Calm Calm - N/A   Unknown
12:35 AM 62.1 °F - 58.1 °F 87% 30.31 in 10.0 mi Calm Calm - N/A   Unknown
12:55 AM 60.6 °F - 59.5 °F 96% 30.31 in 10.0 mi Calm Calm - N/A   Unknown
1:15 AM 61.9 °F - 59.5 °F 92% 30.30 in 10.0 mi Calm Calm - N/A   Unknown
1:35 AM 60.1 °F - 60.1 °F 100% 30.30 in 10.0 mi SW 4.6 mph - N/A   Unknown
1:55 AM 60.8 °F - 60.8 °F 100% 30.29 in 10.0 mi West 3.5 mph - N/A   Unknown
2:15 AM 59.9 °F - 59.9 °F 100% 30.29 in 10.0 mi West 5.8 mph - N/A   Unknown
2:35 AM 58.8 °F - 58.8 °F 100% 30.28 in 10.0 mi West 3.5 mph - N/A   Unknown
3:15 AM - - - N/A% 30.29 in 10.0 mi NW 3.5 mph - N/A   Unknown
3:35 AM 58.3 °F - 57.7 °F 98% 30.29 in 10.0 mi Calm Calm - N/A   Unknown
3:55 AM - - - N/A% 30.29 in 10.0 mi WNW 3.5 mph - N/A   Unknown
4:15 AM - - - N/A% 30.29 in 10.0 mi SW 3.5 mph - N/A   Unknown
4:35 AM - - - N/A% 30.29 in 7.0 mi SW 4.6 mph - N/A   Unknown
4:55 AM - - - N/A% 30.29 in 7.0 mi Calm Calm - N/A   Unknown
5:15 AM - - - N/A% 30.29 in 10.0 mi Calm Calm - N/A   Unknown
5:35 AM - - - N/A% 30.29 in 10.0 mi NNW 4.6 mph - N/A   Unknown
5:55 AM - - - N/A% 30.29 in 7.0 mi Calm Calm - N/A   Unknown
6:15 AM - - - N/A% 30.30 in 7.0 mi Calm Calm - N/A   Unknown
6:35 AM - - - N/A% 30.30 in 4.0 mi SW 3.5 mph - N/A   Haze
6:55 AM - - - N/A% 30.30 in 5.0 mi Calm Calm - N/A   Haze
7:15 AM - - - N/A% 30.30 in 5.0 mi Calm Calm - N/A   Haze
7:35 AM 60.8 °F - 60.6 °F 99% 30.30 in 7.0 mi Calm Calm - N/A   Unknown
7:55 AM 63.9 °F - 59.7 °F 86% 30.31 in 10.0 mi Calm Calm - N/A   Unknown
8:15 AM 66.2 °F - 60.4 °F 82% 30.32 in 10.0 mi Calm Calm - N/A   Unknown
8:35 AM 69.1 °F - 59.2 °F 71% 30.32 in 10.0 mi Calm Calm - N/A   Unknown
8:55 AM 71.1 °F - 59.0 °F 66% 30.32 in 10.0 mi ESE 4.6 mph - N/A   Unknown
9:15 AM 73.0 °F - 59.2 °F 62% 30.32 in 10.0 mi SE 4.6 mph - N/A   Unknown
9:35 AM 73.9 °F - 59.2 °F 60% 30.32 in 10.0 mi ESE 4.6 mph - N/A   Unknown
9:55 AM 75.6 °F - 59.4 °F 57% 30.32 in 10.0 mi SE 3.5 mph - N/A   Unknown
10:15 AM 76.8 °F - 58.6 °F 53% 30.32 in 10.0 mi ESE 8.1 mph - N/A   Unknown
10:35 AM 77.7 °F - 58.6 °F 52% 30.32 in 10.0 mi SE 3.5 mph - N/A   Unknown
10:55 AM 77.9 °F - 58.3 °F 51% 30.32 in 10.0 mi ESE 5.8 mph - N/A   Unknown
11:15 AM 79.5 °F - 57.6 °F 47% 30.32 in 10.0 mi East 3.5 mph - N/A   Unknown
11:35 AM 80.8 °F 81.1 °F 58.3 °F 46% 30.31 in 10.0 mi South 3.5 mph - N/A   Unknown
11:55 AM 82.0 °F 81.8 °F 57.7 °F 43% 30.31 in 10.0 mi SE 4.6 mph - N/A   Unknown
12:15 PM 82.2 °F 81.8 °F 56.7 °F 41% 30.31 in 10.0 mi NNE 3.5 mph - N/A   Unknown
12:35 PM 82.6 °F 81.7 °F 54.9 °F 38% 30.30 in 10.0 mi Calm Calm - N/A   Unknown
12:55 PM 83.7 °F 82.5 °F 55.0 °F 37% 30.30 in 10.0 mi Calm Calm - N/A   Unknown
1:15 PM 84.0 °F 82.7 °F 54.3 °F 36% 30.30 in 10.0 mi Calm Calm - N/A   Unknown
1:35 PM 85.1 °F 83.6 °F 54.9 °F 35% 30.29 in 10.0 mi South 3.5 mph - N/A   Unknown
1:55 PM 86.2 °F 84.4 °F 53.8 °F 33% 30.28 in 10.0 mi Calm Calm - N/A   Unknown
3:35 PM 86.4 °F - 49.3 °F 28% 30.24 in 10.0 mi Calm Calm - N/A   Unknown
4:15 PM 86.4 °F - 50.5 °F 29% 30.23 in 10.0 mi ENE 4.6 mph - N/A   Unknown
4:35 PM 85.5 °F - 49.8 °F 29% 30.23 in 10.0 mi Calm Calm - N/A   Unknown
5:15 PM 83.5 °F - 50.7 °F 32% 30.23 in 10.0 mi ESE 5.8 mph - N/A   Unknown
5:35 PM 83.5 °F - 52.2 °F 34% 30.23 in 10.0 mi East 5.8 mph - N/A   Unknown
5:55 PM 81.5 °F 81.0 °F 54.7 °F 40% 30.23 in 10.0 mi North 18.4 mph 23.0 mph N/A   Unknown
6:15 PM 71.6 °F - 63.7 °F 76% 30.22 in 7.0 mi ENE 9.2 mph - 0.01 in Rain Rain
6:35 PM 75.2 °F - 64.6 °F 69% 30.22 in 10.0 mi ENE 5.8 mph - 0.01 in   Unknown
6:55 PM 77.9 °F - 62.8 °F 60% 30.22 in 10.0 mi ESE 5.8 mph - 0.01 in   Unknown
7:15 PM 76.6 °F - 61.7 °F 60% 30.22 in 10.0 mi SE 6.9 mph - N/A   Unknown
7:35 PM 75.9 °F - 61.7 °F 61% 30.22 in 10.0 mi SE 5.8 mph - N/A   Unknown
7:55 PM 76.1 °F - 58.1 °F 54% 30.22 in 10.0 mi East 6.9 mph - N/A   Unknown
8:15 PM 75.9 °F - 57.6 °F 53% 30.23 in 10.0 mi East 10.4 mph - N/A   Unknown
9:35 PM 72.0 °F - 58.6 °F 63% 30.25 in 10.0 mi East 9.2 mph - N/A   Unknown
10:15 PM 69.6 °F - 59.0 °F 69% 30.25 in 10.0 mi East 6.9 mph - N/A   Unknown
10:35 PM 68.4 °F - 59.0 °F 72% 30.25 in 10.0 mi East 5.8 mph - N/A   Unknown
10:55 PM 67.1 °F - 59.0 °F 75% 30.25 in 10.0 mi East 5.8 mph - N/A   Unknown
11:35 PM 65.7 °F - 58.3 °F 77% 30.27 in 10.0 mi East 5.8 mph - N/A   Unknown
11:55 PM 65.3 °F - 58.3 °F 78% 30.27 in 10.0 mi East 5.8 mph - N/A   Unknown